Tecolote Canyon (492, 23013) Station Data

Red Flag Warning: No
Fire Weather Zone: 243
SDGE Region: Beach Cities
Lat/Lon: 32.791/-117.184

Observations

Time Wind Speed/Gust Temp(F) RH Fuel Moist Fuel Temp(F) Dewpt(F) Tmax(F) Tmin(F) Accum Precip 10-min Precip SL Press(mb)
3/29 8:00am 43 2 G 3 56° 62% - - 43° 59° 50.7° - - -
3/29 7:50am 77 1 G 2 56° 63% - - 43° 59° 50.7° - - -
3/29 7:40am 6 2 G 4 53° 68% - - 43° 59° 50.7° - - -
3/29 7:30am 343 3 G 5 53° 67% - - 42° 59° 50.7° - - -
3/29 7:20am 28 2 G 4 53° 67% - - 42° 59° 50.7° - - -
3/29 7:10am 16 1 G 3 52° 69% - - 42° 59° 50.7° - - -
3/29 7:00am 343 2 G 4 52° 69% - - 42° 59° 50.7° - - -
3/29 6:50am 11 3 G 4 52° 68% - - 42° 59° 51.2° - - -
3/29 6:40am 355 3 G 4 52° 68% - - 42° 59° 51.3° - - -
3/29 6:30am 65 2 G 3 53° 67% - - 42° 59° 51.5° - - -
3/29 6:20am 39 1 G 2 52° 68% - - 42° 59° 51.5° - - -
3/29 6:10am 39 1 G 3 53° 67% - - 42° 59° 51.5° - - -
3/29 6:00am 60 2 G 4 53° 66% - - 42° 59° 51.5° - - -
3/29 5:50am 60 2 G 4 53° 65% - - 42° 59° 51.5° - - -
3/29 5:40am 34 2 G 4 53° 66% - - 42° 59° 51.5° - - -
3/29 5:30am 351 1 G 2 53° 65% - - 42° 59° 51.5° - - -
3/29 5:20am 356 3 G 4 53° 67% - - 42° 59° 51.5° - - -
3/29 5:10am 35 3 G 5 54° 65% - - 42° 59° 52° - - -
3/29 5:00am 35 3 G 3 54° 64% - - 42° 59° 52° - - -
3/29 4:50am 39 3 G 4 54° 64% - - 42° 59° 52° - - -
3/29 4:40am 44 1 G 2 54° 65% - - 42° 59° 52° - - -
3/29 4:30am 49 3 G 4 54° 64% - - 42° 59° 52° - - -
3/29 4:20am 38 3 G 4 54° 65% - - 42° 59° 52° - - -
3/29 4:10am 37 3 G 4 54° 65% - - 42° 59° 52° - - -
3/29 4:00am 37 2 G 4 53° 67% - - 42° 59° 52° - - -
3/29 3:50am 179 1 G 2 53° 65% - - 42° 59° 52.3° - - -
3/29 3:40am 230 1 G 3 54° 63% - - 42° 59° 52.7° - - -
3/29 3:30am 307 2 G 3 54° 63% - - 42° 59° 52.7° - - -
3/29 3:20am 328 2 G 3 54° 63% - - 42° 59° 52.7° - - -
3/29 3:10am 337 1 G 2 54° 63% - - 42° 59° 53.1° - - -
3/29 3:00am 20 2 G 3 55° 62% - - 42° 59° 53.6° - - -
3/29 2:50am 43 2 G 3 54° 62% - - 42° 59° 53.6° - - -
3/29 2:40am 6 1 G 2 55° 61% - - 41° 59° 53.8° - - -
3/29 2:30am 3 0 G 2 55° 60% - - 41° 59° 53.8° - - -
3/29 2:20am 28 1 G 3 55° 59% - - 41° 59° 54° - - -
3/29 2:10am 1 1 G 2 55° 58% - - 41° 59° 54.4° - - -
3/29 2:00am 358 2 G 4 55° 58% - - 40° 59° 54.4° - - -
3/29 1:50am 9 1 G 2 56° 55% - - 40° 59° 55° - - -
3/29 1:40am 353 1 G 2 56° 55% - - 40° 59° 55° - - -
3/29 1:30am 9 1 G 2 56° 55% - - 40° 59° 55° - - -
3/29 1:20am 18 2 G 3 56° 55% - - 40° 59° 55° - - -
3/29 1:10am 13 2 G 3 57° 53% - - 40° 59° 55.8° - - -
3/29 1:00am 32 2 G 3 57° 52% - - 40° 59° 55.8° - - -
3/29 12:50am 8 3 G 3 57° 52% - - 40° 59° 56.5° - - -
3/29 12:40am 35 4 G 5 58° 50% - - 40° 59° 56.9° - - -
3/29 12:30am 37 4 G 4 58° 50% - - 40° 59° 56.9° - - -
3/29 12:20am 37 3 G 3 57° 52% - - 40° 58.2° 56.9° - - -
3/29 12:10am 45 2 G 2 57° 53% - - 40° 58.2° 56.9° - - -
3/29 12:00am 13 1 G 2 57° 56% - - 42° 69.4° 50.8° - - -
3/28 11:50pm 33 2 G 3 58° 59% - - 43° 69.4° 50.8° - - -
3/28 11:40pm 57 1 G 3 58° 60% - - 44° 69.4° 50.8° - - -
3/28 11:30pm 57 1 G 3 58° 59% - - 44° 69.4° 50.8° - - -
3/28 11:20pm 37 2 G 3 58° 60% - - 44° 69.4° 50.8° - - -
3/28 11:10pm 57 1 G 2 59° 60% - - 45° 69.4° 50.8° - - -
3/28 11:00pm 23 0 G 1 59° 60% - - 45° 69.4° 50.8° - - -
3/28 10:50pm 17 1 G 2 59° 61% - - 46° 69.4° 50.8° - - -
3/28 10:40pm 39 1 G 2 59° 64% - - 47° 69.4° 50.8° - - -
3/28 10:30pm 22 0 G 1 59° 67% - - 48° 69.4° 50.8° - - -
3/28 10:20pm 158 0 G 1 59° 69% - - 48° 69.4° 50.8° - - -
3/28 10:10pm 170 0 G 1 59° 69% - - 49° 69.4° 50.8° - - -
3/28 10:00pm 0 0 G 0 59° 70% - - 49° 69.4° 50.8° - - -
3/28 9:50pm 119 1 G 2 59° 69% - - 49° 69.4° 50.8° - - -
3/28 9:40pm 105 1 G 1 60° 67% - - 49° 69.4° 50.8° - - -
3/28 9:30pm 82 1 G 3 60° 67% - - 50° 69.4° 50.8° - - -
3/28 9:20pm 50 2 G 3 60° 73% - - 51° 69.4° 50.8° - - -
3/28 9:10pm 147 2 G 3 59° 76% - - 52° 69.4° 50.8° - - -
3/28 9:00pm 82 1 G 2 60° 77% - - 52° 69.4° 50.8° - - -
3/28 8:50pm 149 1 G 2 59° 76% - - 52° 69.4° 50.8° - - -
3/28 8:40pm 190 2 G 3 60° 76% - - 52° 69.4° 50.8° - - -
3/28 8:30pm 62 1 G 2 60° 75% - - 52° 69.4° 50.8° - - -
3/28 8:20pm 296 0 G 2 60° 75% - - 52° 69.4° 50.8° - - -
3/28 8:10pm 266 2 G 4 61° 72% - - 52° 69.4° 50.8° - - -
3/28 8:00pm 210 2 G 3 61° 70% - - 51° 69.4° 50.8° - - -
3/28 7:50pm 198 2 G 3 62° 68% - - 51° 69.4° 50.8° - - -
3/28 7:40pm 209 2 G 4 62° 63% - - 49° 69.4° 50.8° - - -
3/28 7:30pm 328 1 G 2 62° 65% - - 50° 69.4° 50.8° - - -
3/28 7:20pm 267 1 G 2 63° 65% - - 51° 69.4° 50.8° - - -
3/28 7:10pm 302 1 G 2 63° 63% - - 50° 69.4° 50.8° - - -
3/28 7:00pm 207 0 G 1 64° 62% - - 50° 69.4° 50.8° - - -
3/28 6:50pm 194 2 G 3 64° 61% - - 50° 69.4° 50.8° - - -
3/28 6:40pm 253 1 G 3 65° 58% - - 50° 69.4° 50.8° - - -
3/28 6:30pm 271 2 G 5 65° 52% - - 47° 69.4° 50.8° - - -
3/28 6:20pm 301 3 G 6 66° 43% - - 43° 69.4° 50.8° - - -
3/28 6:10pm 326 5 G 8 66° 40% - - 41° 69.4° 50.8° - - -
3/28 6:00pm 329 7 G 10 66° 40% - - 41° 69.4° 50.8° - - -
3/28 5:50pm 324 6 G 11 66° 39% - - 41° 69.4° 50.8° - - -
3/28 5:40pm 296 6 G 12 66° 48% - - 46° 69.4° 50.8° - - -
3/28 5:30pm 261 5 G 10 66° 51% - - 47° 69.4° 50.8° - - -
3/28 5:20pm 313 7 G 13 66° 41% - - 42° 69.4° 50.8° - - -
3/28 5:10pm 268 5 G 11 66° 52% - - 48° 69.4° 50.8° - - -
3/28 5:00pm 260 5 G 10 66° 54% - - 49° 69.4° 50.8° - - -
3/28 4:50pm 254 5 G 11 66° 54% - - 49° 69.4° 50.8° - - -
3/28 4:40pm 311 7 G 14 67° 44% - - 44° 69.4° 50.8° - - -
3/28 4:30pm 278 7 G 12 67° 52% - - 49° 69.4° 50.8° - - -
3/28 4:20pm 258 6 G 12 66° 60% - - 52° 69.4° 50.8° - - -
3/28 4:10pm 263 5 G 10 66° 61% - - 52° 69.4° 50.8° - - -
3/28 4:00pm 263 5 G 11 67° 56% - - 50° 69.4° 50.8° - - -
3/28 3:50pm 268 6 G 15 67° 51% - - 48° 69.4° 50.8° - - -
3/28 3:40pm 262 6 G 13 67° 53% - - 49° 69.4° 50.8° - - -
3/28 3:30pm 270 6 G 11 67° 55% - - 50° 69.4° 50.8° - - -
3/28 3:20pm 259 5 G 11 67° 56% - - 51° 69.4° 50.8° - - -
3/28 3:10pm 240 5 G 12 67° 60% - - 53° 69.4° 50.8° - - -
3/28 3:00pm 237 7 G 13 67° 56% - - 51° 69.4° 50.8° - - -
3/28 2:50pm 238 6 G 11 68° 45% - - 46° 69.4° 50.8° - - -
3/28 2:40pm 230 6 G 12 67° 49% - - 48° 69.4° 50.8° - - -
3/28 2:30pm 237 8 G 16 67° 51% - - 48° 69.4° 50.8° - - -
3/28 2:20pm 237 7 G 14 66° 52% - - 48° 69.4° 50.8° - - -
3/28 2:10pm 245 7 G 15 66° 53% - - 49° 69.4° 50.8° - - -
3/28 2:00pm 238 7 G 16 67° 53% - - 50° 69.4° 50.8° - - -
3/28 1:50pm 240 7 G 13 67° 50% - - 48° 69.4° 50.8° - - -
3/28 1:40pm 308 5 G 13 68° 41% - - 43° 69.4° 50.8° - - -
3/28 1:30pm 327 6 G 13 67° 43% - - 44° 68.4° 50.8° - - -
3/28 1:20pm 264 5 G 10 66° 56% - - 50° 67.2° 50.8° - - -
3/28 1:10pm 257 6 G 14 66° 60% - - 51° 67° 50.8° - - -
3/28 1:00pm 271 5 G 11 65° 63% - - 52° 67° 50.8° - - -
3/28 12:50pm 255 6 G 12 64° 65% - - 52° 65.8° 50.8° - - -
3/28 12:40pm 252 5 G 8 65° 69% - - 54° 65.8° 50.8° - - -
3/28 12:30pm 234 8 G 14 63° 72% - - 54° 65.7° 50.8° - - -
3/28 12:20pm 247 6 G 12 63° 72% - - 54° 65.7° 50.8° - - -
3/28 12:10pm 260 6 G 12 64° 70% - - 54° 65.7° 50.8° - - -
3/28 12:00pm 249 6 G 15 63° 71% - - 54° 65.6° 50.8° - - -
3/28 11:50am 227 8 G 14 63° 73% - - 54° 65.6° 50.8° - - -
3/28 11:40am 233 7 G 12 63° 69% - - 53° 65.6° 50.8° - - -
3/28 11:30am 253 4 G 11 64° 65% - - 53° 65.6° 50.8° - - -
3/28 11:20am 257 3 G 8 64° 66% - - 52° 65° 50.8° - - -
3/28 11:10am 252 4 G 10 64° 68% - - 53° 65° 50.8° - - -
3/28 11:00am 255 3 G 8 64° 67% - - 52° 64.5° 50.8° - - -
3/28 10:50am 258 3 G 8 63° 67% - - 52° 64.3° 50.8° - - -
3/28 10:40am 240 5 G 11 63° 68% - - 52° 64.3° 50.8° - - -
3/28 10:30am 266 4 G 8 63° 66% - - 52° 64.3° 50.8° - - -
3/28 10:20am 289 3 G 6 63° 65% - - 51° 64.3° 50.8° - - -
3/28 10:10am 300 2 G 5 63° 65% - - 51° 63.9° 50.8° - - -
3/28 10:00am 337 3 G 8 62° 66% - - 50° 63° 50.8° - - -
3/28 9:50am 312 2 G 5 61° 70% - - 51° 62.2° 50.8° - - -
3/28 9:40am 357 2 G 5 60° 72% - - 51° 61.2° 50.8° - - -
3/28 9:30am 355 3 G 6 59° 74% - - 51° 60.4° 50.8° - - -
3/28 9:20am 10 2 G 5 59° 75% - - 51° 60.1° 50.8° - - -
3/28 9:10am 1 1 G 3 59° 76% - - 52° 59.7° 50.8° - - -
3/28 9:00am 352 2 G 4 58° 78% - - 51° 59.3° 50.8° - - -
3/28 8:50am 343 2 G 4 58° 79% - - 51° 58.8° 50.8° - - -
3/28 8:40am 19 1 G 2 57° 80% - - 51° 58.1° 50.8° - - -
3/28 8:30am 11 1 G 4 56° 80% - - 51° 57.6° 50.8° - - -
3/28 8:20am 35 3 G 4 55° 82% - - 50° 56.9° 50.8° - - -
3/28 8:10am 50 2 G 3 55° 82% - - 50° 56.9° 50.8° - - -
3/28 8:00am 28 1 G 3 54° 85% - - 49° 56.9° 50.8° - - -
3/28 7:50am 333 2 G 3 54° 84% - - 49° 56.9° 50.8° - - -
3/28 7:40am 50 1 G 2 54° 83% - - 49° 56.9° 50.8° - - -
3/28 7:30am 47 0 G 1 53° 86% - - 49° 56.9° 50.8° - - -
3/28 7:20am 106 0 G 2 52° 88% - - 49° 56.9° 50.8° - - -
3/28 7:10am 6 1 G 2 52° 88% - - 49° 56.9° 50.8° - - -
3/28 7:00am 72 2 G 3 53° 87% - - 49° 56.9° 50.8° - - -
3/28 6:50am 78 2 G 3 53° 88% - - 49° 56.9° 50.8° - - -
3/28 6:40am 73 4 G 7 52° 89% - - 49° 56.9° 50.8° - - -
3/28 6:30am 48 2 G 5 52° 91% - - 49° 56.9° 50.8° - - -
3/28 6:20am 27 1 G 2 52° 90% - - 49° 56.9° 50.8° - - -
3/28 6:10am 64 1 G 2 52° 89% - - 49° 56.9° 51.2° - - -
3/28 6:00am 83 2 G 2 52° 90% - - 50° 56.9° 51.2° - - -